APSTAR-7

Last updated on Mon Jul 07 2025 00:02:44 GMT+0000 (Coordinated Universal Time)

1 38107U 12013A 25187.59541977 -.00000085 00000+0 00000+0 0 9998 2 38107 0.0357 100.7487 0002372 1.9337 112.9841 1.00271446 48340
UTC large
Height (km)
Speed (km/s)
/
Latitude / Longitude
Inclination (degrees)
Orbital Period (minutes)
Azimuth
Elevation
Range (km)
Doppler Factor

Next 0 passes for location: London (51.5072 / 0.1276)

Sorry there are no passes over London.